Location: Paris
(48.6709°N, 2.3750°E)
Time: 06:58:58
(UTC+02:00)

ZACube-1 - Pass Details

Date: 08 July 2022
Orbit: 582 x 661 km, 97.6° (Epoch: 09 August)

Event Time Altitude Azimuth Distance (km) Brightness Sun altitude
Rises 04:39:14 0° 27° (NNE) 2,979 ? -10.0°
Reaches altitude 10° 04:42:04 10° 46° (NE) 2,073 ? -9.7°
Maximum altitude 04:45:14 19° 90° (E) 1,583 ? -9.4°
Drops below altitude 10° 04:48:25 10° 135° (SE) 2,075 ? -9.1°
Sets 04:51:14 0° 153° (SSE) 2,984 ? -8.8°
